Погода в Благовещенске

Погода в Благовещенске : погода сейчас, прогноз погоды и архив. Всё, что Вы хотите узнать о погоде в Благовещенске!

Хотите узнать прогноз погоды в Благовещенске? Тогда Вам сюда: Погода в Благовещенске

Поиск расширенной информации на нашем сайте:

Другие новости

Новости СМИ2

Главная страница сайта

Новости сайта

02.10.2013

Напоминаем, что на нашем новом сайте вы можете получить высокодетализированные прогнозы погоды по пунктам России, СНГ и мира (включающие важные для авиации метеовеличины, такие как направление и скорость ветра, видимость, явления погоды, количество и форма облачности, нижняя и верхняя граница облачности), а также ознакомиться с разнообразными материалами по авиационной метеорологии и подборкой полезных ссылок на эту тему.

Сайт Метеоцентр.Азия посвящён разработке технологий оптимизации авиаметеорологического обслуживания, включая проектирование и перспективное создание нескольких автоматизированных авиаметеорологических систем:
- система выпуска высокодетальных прогностических карт явлений погоды для нижнего воздушного пространства по России и ближнему зарубежью;
- система верификации прогнозов TAF (выпускаемых синоптиками официальных АМСГ РФ и ближнего зарубежья) и AUTOTAF (выпускаемых сайтом Метеоцентр.Азия) - выявление ошибок, онлайн-сопоставление с фактической погодой METAR, автоматическое внесение коррективов в прогнозы при резком отклонении фактической погоды от прогноза, подсчёт оправдываемости прогнозов по элементам и в целом;
- система обработки, анализа и отображения авиаметеорологической информации для применения провайдерами метеорологической информации.

Рекомендуем: новости гостиничного бизнеса http://biznes-center.com

Погода в Благовещенске - сегодня

Время (UTC), дата Ветер
(°,м/с) 
Видим.   Явления Облачность Т
(°С)
Тd
(°С)
f(%) Тe
(°С)
Pmin
(гПа)
dP
(гПа)
Po
(мм)
O2
(г/м3)
Тmin Tmax R s Состояние
почвы
12 21.01.17 310 (СЗ) н/о    8/0 верхняя 
[Ci fib]
-23.3 -28.2 64 -28  1030.2  0.5  755  334    -17.8       
15 21.01.17 260 (З) н/о    4/0 верхняя 
[Ci fib]
-26.1 -30 70 -27  1030.3  -0.1  755  338           
18 21.01.17 250 (З) н/о    ясно 
-26.3 -29.7 73 -27  1030.3  -0.1  755  338           
21 21.01.17 290 (З) н/о    ясно 
-25.3 -29.2 70 -29  1029.5  -0.7  754  337           
00 22.01.17 300 (СЗ) 20000 м    ясно 
-23.5 -27.9 67 -28  1029.7  0.4  755  335  -29.2      13  неравномерный
сухой снег
100% 
03 22.01.17 320 (СЗ) 20000 м    ясно 
-17 -25.6 47 -22  1028.6  -0.6  754  326           
06 22.01.17 330 (СЗ) 20000 м    1/0 верхняя 
[Ci fib]
-14.5 -24.5 42 -18  1027.2  -1.1  753  322           
09 22.01.17 270 (З) 10 км    ясно 
-18.9 -25.8 54 -22  1027.8  0.2  754  328           
12 22.01.17 310 (СЗ) н/о    ясно 
-20.2 -26.1 59 -25  1028  0.1  754  330    -14.3       
15 22.01.17 300 (СЗ) н/о    ясно 
-22.7 -27.6 64 -27  1028.2  -0.1  754  333           
18 22.01.17 300 (СЗ) н/о    ясно 
-22.1 -27.4 62 -27  1027.8  -0.3  753  332           
21 22.01.17 280 (З) н/о    ясно 
-22.1 -27.3 63 -25  1028  0.2  754  332           
00 23.01.17 300 (СЗ) 20000 м    ясно 
-22.7 -27.4 65 -29  1029.3  1.1  754  333  -23.1      13  неравномерный
сухой снег
100% 
03 23.01.17 330 (СЗ) 20000 м    ясно 
-16.1 -24.5 48 -20  1029.2  0.5  755  325           
06 23.01.17 310 (СЗ) 20000 м    ясно 
-14 -24.4 41 -19  1028.3  -0.7  754  322           
09 23.01.17 310 (СЗ) 20000 м    ясно 
-16.4 -24.4 50 -20  1029.1  0.5  755  325           
12 23.01.17 290 (З) н/о    ясно 
-19.6 -24.7 64 -24  1029.6  0.2  755  329    -13.2       
15 23.01.17 300 (СЗ) н/о    ясно 
-18.9 -24.8 60 -24  1029.2  -0.3  755  328           
18 23.01.17 300 (СЗ) н/о    ясно 
-19 -24.7 61 -23  1028.9  -0.3  754  328           
21 23.01.17 290 (З) н/о    ясно 
-19.6 -25 62 -25  1028.7  -0.3  754  329           
00 24.01.17 290 (З) 20000 м    ясно 
-19.8 -25.4 61 -25  1029.3  0.6  755  330  -20.3      13  неравномерный
сухой снег
100% 
03 24.01.17 260 (З) 20000 м    ясно 
-12.5 -23 41 -16  1028.1  -0.6  754  320           
06 24.01.17 200 (Ю) 20000 м    ясно 
-9 -19.3 43 -11  1026.7  -1.1  753  315           
09 24.01.17 180 (Ю) 10 км    ясно 
-13.4 -20.2 57 -13  1026.8  -0.3  753  321           
12 24.01.17 280 (З) н/о    ясно 
-14.4 -24.9 41 -19  1027.3  0.4  754  322    -8.5       
Время (UTC), дата Ветер
(°,м/с) 
Видим.   Явления Облачность Т
(°С)
Тd
(°С)
f(%) Тe
(°С)
Pmin
(гПа)
dP
(гПа)
Po
(мм)
O2
(г/м3)
Тmin Tmax R s Состояние
почвы

Для получения пояснительной информации подведите курсор к названию столбца.

ПОГОДА в Благовещенске - архив

Всё, что Вы хотите узнать о погоде в Благовещенске - удобно и подробно!

Выберите нужную дату (начиная с 1 января 2015* года) и нажмите кнопку "Найти".
Будут отображены архивные сводки погоды по пункту Благовещенск, начиная с указанной даты.


Отображать данные в формате CSV (для использования в таблицах Excel)


Внимание! Наш архив погоды предназначен исключительно для личного некоммерческого использования в познавательных целях. Если Вам необходимы официальные справки о состоянии погоды (для производственных, юридических, коммерческих и т.п. целей), обращайтесь в органы Росгидромета.

*Примечание: данная дата относится к архиву по метеостанциям СССР (Россия, СНГ, Балтия).
Архив по метеостанциям Зарубежной Европы и Азии (кроме Китая) хранится 10 дней, по другим регионам земного шара (Китай, Африка, Америка, Австралия, Океания) - 1 день.

Благовещенск - район местоположения метеостанции


Название, широта, долгота, высота метеостанции:
Благовещенск 50.2°ш. 127.6°д. 132 м над ур. моря [Российская Федерация]

Дополнительная информация

В oтличие oт бoльшинства пoгoдных сайтoв мы публикуем пoдрoбную метеoинфoрмацию в детальнoм прoфессиoнальнoм фoрмате.

Характеристики температуры и влажнoсти вoздуха измеряются на высoте 2 м в тени вдали oт зданий и деревьев.
Скoрoсть ветра измеряется на высoте 10 м (на урoвне рoста челoвека скoрoсть ветра ниже в 1.5-2 раза). Если метеoстанция нахoдится в гoрoде или в лесу, тo скoрoсть ветра занижена на 2-4 м/с пo сравнению с oткрытым местoм. Скoрoсть ветра над акватoриями крупных рек и oзёр, а также на вершинах хoлмoв на 2-5 м/с выше, чем в oбычных услoвиях.
Атмoсфернoе давление в разных тoчках местнoсти мoжет значительнo oтличаться oт давления на метеoстанции, в зависимoсти oт услoвий рельефа (при пoдъёме на 10 м давление пoнижается примернo на 1 мм рт.ст.).